Preview of NWS' New Version of Forecast
This preview is not operational and should not be used for support decisions.

Regional Weather Roundup (RWR)

Issued by National Weather Service (NWS)

                            
000
ASUS43 KBIS 201410
RWRND 

NORTH DAKOTA REGIONAL WEATHER ROUNDUP
NATIONAL WEATHER SERVICE BISMARCK ND
900 AM CDT TUE AUG 20 2019

NOTE: "FAIR" INDICATES FEW OR NO CLOUDS BELOW 12,000 FEET WITH NO
SIGNIFICANT WEATHER AND/OR OBSTRUCTIONS TO VISIBILITY.


NDZ001>003-009>011-017-201500-
NORTHWEST NORTH DAKOTA
  
CITY           SKY/WX    TMP DP  RH WIND       PRES   REMARKS
WILLISTON      SUNNY     55  46  71 N15       30.17R                  
MINOT          SUNNY     58  49  72 NW15G25   30.13R                  
MINOT AFB      SUNNY     57  47  71 N12       30.13                   
$$
 
NDZ018>021-031>035-040>046-201500-
SOUTHWEST NORTH DAKOTA
  
CITY           SKY/WX    TMP DP  RH WIND       PRES   REMARKS
BISMARCK       SUNNY     61  53  75 N12       30.09R                  
DICKINSON      MOSUNNY   59  48  67 NE14      30.12R                  
GARRISON         N/A     58  50  75 NE13G18   30.11R                  
HETTINGER ARPT PTSUNNY   61  52  72 N16G28    30.12R                  
$$
 
NDZ004>008-012>016-024-026-027-054-201500-
NORTHEAST NORTH DAKOTA
  
CITY           SKY/WX    TMP DP  RH WIND       PRES   REMARKS
GRAND FORKS    MOSUNNY   63  56  78 N15G26    29.96R                  
GRND FRKS AFB  SUNNY     62  58  84 N16       29.99R                  
DEVILS LAKE    SUNNY     58  53  84 N16       30.07R                  
$$
 
NDZ022-023-025-028>030-036>039-047>053-201500-
SOUTHEAST NORTH DAKOTA
  
CITY           SKY/WX    TMP DP  RH WIND       PRES   REMARKS
FARGO          PTSUNNY   69  65  86 N8        29.93R                  
JAMESTOWN      PTSUNNY   65  62  90 N16G25    30.01R                  
$$